sat.trackr.live / text

‹ back to catalog

BALKAN-1

NORAD 62611 · 2025-009C

PAYLOAD ACTIVE UNKNOWN

§ Identity

Operator
Country
BUL
Launch date
2025-01-14
Launch site
AFWTR
Launch vehicle
Mass (kg)
RCS (m²)

External: N2YO · Heavens-Above · Gunter

§ Orbital elements

Epoch: 2026-09-22T16:16:59.543616Z

Period
94.36 min
Inclination
97.3857°
Eccentricity
0.0006426
Mean motion
15.26108951 rev/d
Perigee alt
483.0 km
Apogee alt
491.9 km
Semi-major
6,865.6 km
B*
1.8375e-4
RAAN
343.7328°
Arg perigee
5.6612°
Mean anomaly
354.4698°
Rev number
9,362

§ Raw data

BALKAN-11 62611U 25009C   26265.67846694  .00004669  00000+0  18375-3 0  99942 62611  97.3857 343.7328 0006426   5.6612 354.4698 15.26108951 93622

JSON: /api/v1/satellites/62611 · /tle

For live sub-satellite position, see the globe view (requires WebGL).

§ Visibility from observer

Set your observer location to see the next 7 days of passes ≥ 10°. The values pass through the URL so the page stays shareable.

No JS? Fill the form by hand. The geolocation button needs JavaScript.

§ Radio — SatNOGS DB

ModeDescriptionDownlinkUplink
FM Mode K - Transmitter 26.250 GHz
FM Mode K - Transmitter KIST 24.600 GHz
FM Mode S - Transmitter 2.277 GHz
FM Mode S - Transmitter SIST 1 2.103 GHz
FM Mode S - Transmitter SIST 2 2.278 GHz
GMSK UHF 9k6 Telemetry 401.360 MHz

6 transmitters · refreshed weekly from db.satnogs.org